Regional Weather Roundup
Issued by NWS Jackson, KY

Home | Current Version | Previous Version | Graphics & Text | Print | Product List | Glossary On
Versions: 1 2 3 4 5 6 7 8 9 10 11 12 13 14 15 16 17 18 19 20 21 22 23 24 25 26 27
000
ASUS43 KJKL 261510
RWRJKL

EAST KENTUCKY HOURLY WEATHER ROUNDUP
NATIONAL WEATHER SERVICE JACKSON KY
1100 AM EDT WED APR 26 2017

NOTE: "FAIR" INDICATES FEW OR NO CLOUDS BELOW 12,000 FEET WITH
NO SIGNIFICANT WEATHER AND/OR OBSTRUCTIONS TO VISIBILITY.

* THESE REPORTS ARE NOT UNDER NWS QUALITY CONTROL AND MAY NOT
  REPORT WEATHER SUCH AS PRECIPITATION AND FOG.

KYZ079-080-083-085-087-088-110-112-115-119-120-261600
...EASTERN KENTUCKY...

CITY           SKY/WX    TMP DP  RH WIND       PRES   REMARKS
JACKSON        SUNNY     70  57  63 VRB3      29.81F
LONDON         SUNNY     71  55  56 SW10G18   29.80F
SOMERSET*      SUNNY     68  55  64 S3        29.80S
MONTICELLO*    SUNNY     73  59  61 W18G24    29.80S
WILLIAMSBURG*  SUNNY     72  59  64 SW10G16   29.80F
MIDDLESBORO*   SUNNY     69  58  66 CALM      29.83F
HARLAN APT*    SUNNY     68  55  64 CALM      29.84F
PIKE CO APT*     N/A     66  60  81 S6        29.83F
BIG SANDY APT* SUNNY     70  58  65 SW5       29.81F
MOREHEAD APT*  SUNNY     72  57  60 SW8       29.79S
$$

KYZ035-036-041-042-044-050-067-078-099-261600
...CENTRAL KENTUCKY...

CITY           SKY/WX    TMP DP  RH WIND       PRES   REMARKS
MT STERLING*   SUNNY     70  59  68 SW9       29.79S
FLEMING/MASON* SUNNY     70  59  66 SW9       29.78R
DANVILLE*      SUNNY     72  59  64 SW12      29.78S
LEXINGTON      SUNNY     72  58  61 S12       29.76S
FRANKFORT      CLOUDY    73  57  57 S6        29.71F
LOUISVILLE     CLOUDY    75  60  59 S13       29.67F
LEBANON*         N/A     72  59  64 S9        29.74S
GLASGOW*       SUNNY     72  58  62 SW10      29.73S
BOWLING GREEN  CLOUDY    74  62  66 S13       29.71F
$$

KYZ091>093-OHZ055-061-077-WVZ005-015-034-035-042-261600
...SOUTHERN OHIO/WEST VIRGINIA...

CITY           SKY/WX    TMP DP  RH WIND       PRES   REMARKS
COVINGTON      CLOUDY    71  59  65 S13       29.69F
COLUMBUS       PTSUNNY   70  58  65 S8        29.74S
DAYTON         CLOUDY    70  57  63 S14       29.68F
WILMINGTON     SUNNY     71  61  70 S12       29.72F
HUNTINGTON     SUNNY     72  58  61 S5        29.77F
CHARLESTON     MOSUNNY   72  58  61 VRB3      29.79F
PINEVILLE*     SUNNY     69  57  66 MISG      29.90S
BECKLEY        MOSUNNY   67  55  65 VRB7      29.86F
BLUEFIELD      MOSUNNY   64  53  67 NW9       29.89S
$$

VAZ002-007-008-TNZ017-027-036-066-071-261600
...SOUTHWEST VIRGINIA/EAST TENNESSEE...

CITY           SKY/WX    TMP DP  RH WIND       PRES   REMARKS
WISE*          SUNNY     68  54  60 CALM      29.89F
JONESVILLE*      N/A     68  57  68 CALM      29.86F
ABINGDON*      SUNNY     68  60  74 W5        29.88F
BRISTOL        MOSUNNY   66  58  75 CALM      29.87F
MORRISTOWN*    SUNNY     68  57  68 CALM      29.84F
SEVIERVILLE*   SUNNY     66  55  68 NE3       29.83F
KNOXVILLE      MOSUNNY   69  57  65 VRB3      29.82F
OAK RIDGE      SUNNY     70  58  65 CALM      29.83F
CROSSVILLE     SUNNY     68  55  63 VRB5      29.83F
NASHVILLE      MOSUNNY   73  60  63 S12       29.74S
$$

...KEY TO REMARKS...
VSB - VISIBILITY IN MILES
WCI - WIND CHILL INDEX
HX  - HEAT INDEX

$$




USA.gov is the U.S. government's official web portal to all federal, state and local government web resources and services.